• In Spain
  • List of Countries
  • For 7 days
  • Water Temperature
  • Satellite Maps
  • Weather Map
  • Weather Widgets
  • user-avatar
    Login

    Hourly Weather Trzemietowo

    Today, 17 July, Tuesday

    Time Temperature Precipitation Wind Pressure Humidity
    00:00 +19°C° 0.8 mm 2 mps 747 mmHg 94%
    01:00 +19°C° 0.8 mm 2 mps 747 mmHg 95%
    02:00 +19°C° 1.2 mm 2 mps 747 mmHg 95%
    03:00 +19°C° 1.2 mm 2 mps 746 mmHg 95%
    04:00 +18°C° 1.2 mm 2 mps 746 mmHg 95%
    05:00 +19°C° 1 mm 3 mps 746 mmHg 94%
    06:00 +19°C° 1 mm 3 mps 746 mmHg 93%
    07:00 +19°C° 1 mm 3 mps 746 mmHg 93%
    08:00 +20°C° 0.9 mm 3 mps 746 mmHg 90%
    09:00 +21°C° 0.9 mm 3 mps 746 mmHg 87%
    10:00 +21°C° 0.9 mm 3 mps 746 mmHg 84%
    11:00 +22°C° 0.9 mm 3 mps 746 mmHg 84%
    12:00 +22°C° 0.9 mm 4 mps 746 mmHg 83%
    13:00 +22°C° 0.9 mm 4 mps 746 mmHg 83%
    14:00 +22°C° 0.8 mm 4 mps 746 mmHg 84%
    15:00 +21°C° 0.8 mm 4 mps 746 mmHg 85%
    16:00 +21°C° 0.8 mm 4 mps 746 mmHg 87%
    17:00 +21°C° 0.6 mm 4 mps 746 mmHg 89%
    18:00 +20°C° 0.6 mm 4 mps 746 mmHg 91%
    19:00 +20°C° 0.6 mm 4 mps 746 mmHg 92%
    20:00 +19°C° 0.7 mm 4 mps 746 mmHg 94%
    21:00 +19°C° 0.7 mm 4 mps 746 mmHg 95%
    22:00 +19°C° 0.7 mm 4 mps 746 mmHg 96%
    23:00 +19°C° 1.1 mm 4 mps 746 mmHg 96%

    Tomorrow, 18 July, Wednesday

    Time Temperature Precipitation Wind Pressure Humidity
    00:00 +19°C° 1.1 mm 4 mps 746 mmHg 96%
    01:00 +19°C° 1.1 mm 4 mps 746 mmHg 96%
    02:00 +19°C° 0.9 mm 4 mps 746 mmHg 96%
    03:00 +19°C° 0.9 mm 4 mps 746 mmHg 96%
    04:00 +19°C° 0.9 mm 4 mps 746 mmHg 96%
    05:00 +19°C° 0.8 mm 4 mps 746 mmHg 96%
    06:00 +19°C° 0.8 mm 3 mps 746 mmHg 96%
    07:00 +19°C° 0.8 mm 3 mps 746 mmHg 95%
    08:00 +20°C° 0.8 mm 4 mps 746 mmHg 94%
    09:00 +20°C° 0.8 mm 4 mps 747 mmHg 92%
    10:00 +21°C° 0.8 mm 4 mps 747 mmHg 91%
    11:00 +22°C° 0.8 mm 4 mps 747 mmHg 88%
    12:00 +23°C° 0.8 mm 5 mps 747 mmHg 84%
    13:00 +25°C° 0.8 mm 5 mps 747 mmHg 81%
    14:00 +24°C° 0.8 mm 6 mps 747 mmHg 81%
    15:00 +24°C° 0.8 mm 6 mps 747 mmHg 81%
    16:00 +24°C° 0.8 mm 6 mps 747 mmHg 81%
    17:00 +23°C° 0.5 mm 5 mps 747 mmHg 84%
    18:00 +22°C° 0.5 mm 5 mps 748 mmHg 86%
    19:00 +21°C° 0.5 mm 4 mps 748 mmHg 89%
    20:00 +21°C° 0 mm 4 mps 748 mmHg 90%
    21:00 +20°C° 0 mm 4 mps 748 mmHg 91%
    22:00 +19°C° 0 mm 4 mps 748 mmHg 93%
    23:00 +19°C° 0 mm 4 mps 748 mmHg 93%

    Day after tomorrow, 19 July, Thursday

    Time Temperature Precipitation Wind Pressure Humidity
    00:00 +19°C° 0 mm 4 mps 748 mmHg 93%
    01:00 +19°C° 0 mm 3 mps 748 mmHg 93%
    02:00 +19°C° 0 mm 3 mps 748 mmHg 93%
    03:00 +19°C° 0 mm 3 mps 748 mmHg 92%
    04:00 +18°C° 0 mm 3 mps 748 mmHg 92%
    05:00 +19°C° 0 mm 3 mps 749 mmHg 91%
    06:00 +19°C° 0 mm 3 mps 749 mmHg 89%
    07:00 +20°C° 0 mm 3 mps 749 mmHg 87%
    08:00 +21°C° 0.1 mm 3 mps 749 mmHg 85%
    09:00 +21°C° 0.1 mm 3 mps 749 mmHg 82%
    10:00 +22°C° 0.1 mm 3 mps 749 mmHg 79%
    11:00 +23°C° 0.1 mm 4 mps 749 mmHg 74%
    12:00 +25°C° 0.1 mm 4 mps 749 mmHg 69%
    13:00 +26°C° 0.1 mm 4 mps 749 mmHg 64%
    14:00 +26°C° 0.1 mm 4 mps 749 mmHg 64%
    15:00 +26°C° 0.1 mm 4 mps 749 mmHg 63%
    16:00 +26°C° 0.1 mm 4 mps 749 mmHg 63%
    17:00 +25°C° 0 mm 4 mps 749 mmHg 67%
    18:00 +23°C° 0 mm 4 mps 749 mmHg 70%
    19:00 +22°C° 0 mm 3 mps 749 mmHg 74%
    20:00 +21°C° 0 mm 3 mps 750 mmHg 78%
    21:00 +20°C° 0 mm 3 mps 750 mmHg 82%
    22:00 +18°C° 0 mm 3 mps 750 mmHg 86%
    23:00 +18°C° 0 mm 3 mps 750 mmHg 87%

    20 July, Friday

    Time Temperature Precipitation Wind Pressure Humidity
    00:00 +18°C° 0 mm 3 mps 750 mmHg 88%
    01:00 +17°C° 0 mm 3 mps 750 mmHg 89%
    02:00 +17°C° 0 mm 3 mps 750 mmHg 89%
    03:00 +16°C° 0 mm 3 mps 749 mmHg 90%
    04:00 +16°C° 0 mm 3 mps 749 mmHg 90%
    05:00 +17°C° 0 mm 3 mps 749 mmHg 85%
    06:00 +19°C° 0 mm 3 mps 749 mmHg 81%
    07:00 +20°C° 0 mm 3 mps 749 mmHg 76%
    08:00 +21°C° 0 mm 3 mps 750 mmHg 70%
    09:00 +23°C° 0 mm 4 mps 750 mmHg 64%
    10:00 +26°C° 0 mm 4 mps 750 mmHg 58%
    11:00 +26°C° 0 mm 4 mps 750 mmHg 56%
    12:00 +27°C° 0 mm 4 mps 749 mmHg 54%
    13:00 +28°C° 0 mm 4 mps 749 mmHg 51%
    14:00 +28°C° 0 mm 4 mps 749 mmHg 53%
    15:00 +27°C° 0 mm 4 mps 749 mmHg 54%
    16:00 +27°C° 0 mm 4 mps 749 mmHg 55%
    17:00 +26°C° 0 mm 4 mps 749 mmHg 61%
    18:00 +23°C° 0 mm 4 mps 749 mmHg 66%
    19:00 +22°C° 0 mm 3 mps 749 mmHg 72%
    20:00 +21°C° 0 mm 3 mps 749 mmHg 76%
    21:00 +19°C° 0 mm 3 mps 749 mmHg 80%
    22:00 +18°C° 0 mm 2 mps 749 mmHg 84%
    23:00 +17°C° 0 mm 2 mps 749 mmHg 84%

    21 July, Saturday

    Time Temperature Precipitation Wind Pressure Humidity
    00:00 +16°C° 0 mm 2 mps 749 mmHg 84%
    01:00 +16°C° 0 mm 2 mps 749 mmHg 84%
    02:00 +15°C° 0 mm 2 mps 749 mmHg 83%
    03:00 +15°C° 0 mm 2 mps 749 mmHg 83%
    04:00 +14°C° 0 mm 2 mps 749 mmHg 82%
    05:00 +16°C° 0 mm 2 mps 749 mmHg 78%
    06:00 +17°C° 0 mm 2 mps 749 mmHg 75%
    07:00 +19°C° 0 mm 2 mps 749 mmHg 71%
    08:00 +20°C° 0 mm 2 mps 749 mmHg 65%
    09:00 +23°C° 0 mm 2 mps 749 mmHg 58%
    10:00 +25°C° 0 mm 2 mps 749 mmHg 52%
    11:00 +25°C° 0 mm 2 mps 749 mmHg 49%
    12:00 +26°C° 0 mm 2 mps 749 mmHg 46%
    13:00 +27°C° 0 mm 2 mps 749 mmHg 43%
    14:00 +27°C° 0 mm 2 mps 749 mmHg 43%
    15:00 +27°C° 0 mm 2 mps 748 mmHg 43%
    16:00 +27°C° 0 mm 2 mps 748 mmHg 43%
    17:00 +26°C° 0 mm 2 mps 748 mmHg 50%
    18:00 +24°C° 0 mm 2 mps 748 mmHg 56%
    19:00 +22°C° 0 mm 3 mps 748 mmHg 63%
    20:00 +20°C° 0 mm 3 mps 748 mmHg 67%
    21:00 +19°C° 0 mm 3 mps 748 mmHg 71%
    22:00 +18°C° 0 mm 3 mps 748 mmHg 75%
    23:00 +17°C° 0 mm 2 mps 748 mmHg 76%

    22 July, Sunday

    Time Temperature Precipitation Wind Pressure Humidity
    00:00 +16°C° 0 mm 2 mps 748 mmHg 78%
    01:00 +16°C° 0 mm 1 mps 748 mmHg 79%
    02:00 +16°C° 0 mm 1 mps 748 mmHg 78%
    03:00 +16°C° 0 mm 1 mps 748 mmHg 76%
    04:00 +16°C° 0 mm 1 mps 748 mmHg 75%
    05:00 +18°C° 0 mm 1 mps 748 mmHg 71%
    06:00 +19°C° 0 mm 1 mps 748 mmHg 68%
    07:00 +19°C° 0 mm 2 mps 748 mmHg 65%
    08:00 +20°C° 0 mm 2 mps 749 mmHg 60%
    09:00 +23°C° 0 mm 2 mps 749 mmHg 55%
    10:00 +24°C° 0 mm 2 mps 749 mmHg 50%
    11:00 +25°C° 0 mm 2 mps 749 mmHg 49%
    12:00 +25°C° 0 mm 2 mps 748 mmHg 48%
    13:00 +26°C° 0 mm 2 mps 748 mmHg 47%
    14:00 +25°C° 0.3 mm 2 mps 748 mmHg 51%
    15:00 +25°C° 0.3 mm 2 mps 748 mmHg 55%
    16:00 +24°C° 0.3 mm 3 mps 748 mmHg 59%
    17:00 +22°C° 0.4 mm 3 mps 748 mmHg 66%
    18:00 +21°C° 0.4 mm 2 mps 748 mmHg 72%
    19:00 +20°C° 0.4 mm 2 mps 748 mmHg 79%
    20:00 +19°C° 0 mm 2 mps 748 mmHg 83%
    21:00 +18°C° 0 mm 2 mps 749 mmHg 87%
    22:00 +17°C° 0 mm 2 mps 749 mmHg 91%
    23:00 +16°C° 0 mm 2 mps 749 mmHg 92%
    Show more